Flag for U.S.A. Weather past 2 weeks in Grand Rapids, Michigan, U.S.A.

Now
26 °F

Passing clouds.


Feels Like: 14 °F
Forecast: 10 / 27 °F
Wind: 16 mph from Northwest

Location: Kent County International Airport

Current Time: Mar 4, 2015 at 8:00:08 AM

Latest Report: Mar 4, 2015 at 6:53 AM


Visibility: 10 mi

Pressure: 29.93 "Hg

Humidity: 66%

Dew point: 16 °F

Location of Grand RapidsLocation

Historic Weather in Grand Rapids — Graph

°F

Grand Rapids temperature yesterday

Maximum temperature yesterday: 33 °F (at 4:53 PM)
Minimum temperature yesterday: 22 °F (at 7:53 AM)
Average temperature yesterday: 27 °F

Past Weeks' High & Low Weather Summary

 TemperatureHumidityPressure
High33 °F (Mar 3, 4:53 PM)93% (Mar 3, 1:53 PM)30.77 "Hg (Mar 3, 1:53 PM)
Low-11 °F (Feb 20, 1:53 AM)34% (Feb 28, 4:53 PM)29.59 "Hg (Mar 3, 3:53 PM)
Average13 °F68%30.21 "Hg
* Reported Feb 17 6:53 AM — Mar 4 6:53 AM, Grand Rapids, Weather by CustomWeather, © 2015

Note: Actual official high and low records may vary slightly from our data, if they occured in-between our weather recording intervals... More about our weather records

Advertising

Grand Rapids weather history for previous 24 hours

 ConditionsComfort  
Time TempWeatherWind HumidityBarometerVisibility
6:53 AM
Wed, Mar 4
26 °FPassing clouds.16 mph66%29.93 "Hg10 mi
5:53 AM27 °FPassing clouds.13 mph69%29.91 "Hg10 mi
4:53 AM29 °FOvercast.9 mph72%29.86 "Hg8 mi
3:53 AM29 °FOvercast.8 mph75%29.83 "Hg8 mi
2:53 AM30 °FOvercast.7 mph72%29.84 "Hg8 mi
1:53 AM29 °FOvercast.9 mph75%29.84 "Hg8 mi
12:53 AM29 °FOvercast.10 mph75%29.82 "Hg8 mi
11:53 PM
Tue, Mar 3
30 °FOvercast.14 mph72%29.82 "Hg10 mi
10:53 PM30 °FOvercast.13 mph75%29.81 "Hg10 mi
9:53 PM30 °FOvercast.13 mph79%29.77 "Hg10 mi
8:53 PM31 °FMostly cloudy.18 mph82%29.75 "Hg10 mi
7:53 PM32 °FOvercast.20 mph82%29.72 "Hg10 mi
6:53 PM32 °FMostly cloudy.18 mph82%29.65 "Hg10 mi
5:53 PM33 °FOvercast.20 mph82%29.62 "Hg10 mi
4:53 PM33 °FLight freezing rain. Fog.28 mph85%29.61 "Hg3 mi
3:53 PM32 °FLight freezing rain. Ice fog.17 mph92%29.59 "Hg2 mi
2:53 PM31 °FLight freezing rain. Ice fog.14 mph89%29.61 "Hg1 mi
1:53 PM29 °FLight freezing rain. Ice fog.13 mph93%29.66 "Hg1 mi
12:53 PM28 °FLight freezing rain. Ice fog.12 mph89%29.68 "Hg1 mi
12:03 PM26 °FLight snow. Ice fog.9 mph84%29.72 "Hg3 mi
11:53 AM25 °FSleet. Ice fog.10 mph85%29.75 "Hg2 mi
10:53 AM23 °FSleet. Ice fog.13 mph85%29.83 "Hg2 mi
9:53 AM22 °FSnow. Ice fog.12 mph89%29.94 "Hg1 mi
8:53 AM22 °FHeavy snow. Ice fog.15 mph89%29.99 "Hg0 mi
8:02 AM22 °FSnow. Ice fog.8 mph89%30.03 "Hg1 mi
Weather by CustomWeather, © 2015

See weather overviewHow to use our weather pages